Tracking 22993 objects as of 12-May-2021
HD Live streaming from Space Station
objects crossing your sky now

AMOS 17

Track AMOS 17 now!
AMOS 17 is classified as:


NORAD ID: 44479
Int'l Code: 2019-050A
Perigee: 35,786.3 km
Apogee: 35,800.6 km
Inclination: 0.0 °
Period: 1,436.1 minutes
Semi major axis: 42164 km
RCS: Unknown
Launch date: August 6, 2019
Source: Israel (ISRA)
Launch site: AIR FORCE EASTERN TEST RANGE (AFETR)
aabbcc
Your satellite tracking list
Your tracking list is empty




NASA's NSSDC Master Catalog

Two Line Element Set (TLE):
1 44479U 19050A   21131.74082274  .00000117  00000-0  00000+0 0  9993
2 44479   0.0208 290.8594 0001692 128.2534  94.3086  1.00272942  6519
Source of the keplerian elements: AFSPC